Погода Мыс Болванский

Погода Мыс Болванский : погода сейчас, прогноз погоды и архив. Всё, что Вы хотите узнать о погоде Мыс Болванский!

Поиск расширенной информации на нашем сайте:

Полезная информация: Эта компания taganrog.delinet.ru придала наглядности наработки взято отсюда

Другие новости

Новости СМИ2

Главная страница сайта

Новости сайта

03.07.2017

Напоминаем, что на нашем специализированном сайте Метеоцентр.Азия вы можете получить высокодетализированные автоматические прогнозы погоды по пунктам России, СНГ и мира в авиационном формате (включающие направление и скорость ветра, видимость, явления погоды, количество и форму облачности, нижнюю и верхнюю границу облачности).

Рекомендуем: Где купить металлический шкаф litpolmebel.com.

Погода Мыс Болванский - сегодня

Время (UTC), дата Ветер
(°,м/с) 
Видим.   Явления Облачность Т
(°С)
Тd
(°С)
f(%) Тe
(°С)
Pmin
(гПа)
dP
(гПа)
Po
(мм)
O2
(г/м3)
Тmin Tmax R s Состояние
почвы
06 16.10.17 210 (ЮЗ) 6{11}  10 км    9/6 600 м средняя 
[Sc|Ac trans]
-1.8 -3 91 -6  1021.8  -0.2  765  311  -1.8         
09 16.10.17 190 (Ю) 2000 м  слаб. ливневой снег  10/10 450 м кучево-дожд. 
[Cb cap]
-1.9 -3.7 87 -4  1021.8  -0.1  765  311           
12 16.10.17 180 (Ю) 10 км  {ливн. осадки}  10/0 средняя 
[Ac und]
-2.1 -4.6 83 -4  1020.8  -1  765  311           
15 16.10.17 180 (Ю) 10 км    10/10 700 м 
[Sc]
-1.2 -4.5 78 -5  1019.4  -1.4  764  310    +0.1  0.1     
18 16.10.17 150 (ЮВ) 10-14{14}  10 км    10/10 1110 м 
[Sc]
-1.4 -4 82 -7  1017.2  -2.1  762  309           
21 16.10.17 150 (ЮВ) 15-19{19}  10 км    10/0 средняя 
[Ac und]
-1.5 -4.4 81 -8  1014.7  -2.5  760  308           
00 17.10.17 140 (ЮВ) 15-20{21}  10 км    9/0 средняя 
[Ac trans]
-1 -3.6 82 -7  1012.1  -2.7  758  307           
03 17.10.17 140 (ЮВ) 16-20{21}  2000 м  слаб. ливневой снег  10/10 240 м кучево-дожд. 
[Cb cap]
-1.1 -1.7 96 -8  1010.2  -1.9  757  306  -2.4    0.0     
06 17.10.17 140 (ЮВ) 16-19{21}  1000 м  сильн. снег{ливн. осадки}  10/10 240 м 
[Frnb|Ns]
-0.9 -1 99 -7  1008.3  -1.8  755  305           
09 17.10.17 140 (ЮВ) 14-18{19}  2000 м  снег  10/10 270 м 
[Frnb|Ns]
-0.4 -0.5 99 -6  1007.3  -1  755  305           
12 17.10.17 130 (ЮВ) 16-19{20}  10 км  снег  10/10 240 м 
[Frnb|Ns]
-0.1 -0.1 100 -6  1005.9  -1.4  753  304           
15 17.10.17 120 (ЮВ) 15-18{19}  10 км  {ливн. осадки}  10/10 540 м 
[Sc]
-0.2 -1.2 93 -6  1005.2  -0.8  753  304    +0  0.9     
18 17.10.17 130 (ЮВ) 14-17{18}  4000 м  слаб. снег  10/10 480 м 
[Ns]
-0.2 -0.8 96 -6  1003.8  -1.3  752  303           
21 17.10.17 170 (Ю) 14-16{19}  10 км  {снег}  10/10 660 м 
[Sc]
+0.2 -0.8 93 -6  1002.5  -1.3  751  302           
00 18.10.17 120 (ЮВ) 15-19{20}  2000 м  слаб. ливневой снег  10/10 540 м кучево-дожд. 
[Cb cap]
-0.1 -0.1 100 -6  1000.6  -1.5  750  302           
03 18.10.17 110 (В) 15-19{21}  2000 м  слаб. ливневой снег  10/10 270 м кучево-дожд. 
[Cb cap]
-0 -0 100 -6  998.4  -2.3  748  301  -0.5    0.6  мокрый или
старый снег
50-90% 
06 18.10.17 110 (В) 16-20{21}  1000 м  сильн. снег{ливн. осадки}  10/10 330 м 
[Ns]
-0.1 -0.1 100 -6  996.2  -2.2  746  301           
09 18.10.17 110 (В) 16-20{21}  1000 м  сильн. снег  10/10 270 м 
[Frnb|Ns]
+0 +0 100 -6  993.7  -2.5  744  300           
12 18.10.17 110 (В) 14-17{21}  1000 м  сильн. снег  10/10 240 м 
[Frnb|Ns]
+0 +0 100 -6  991.3  -2.4  742  299           
15 18.10.17 090 (В) 14-18{19}  1000 м  сильн. снег  10/10 240 м 
[Frnb|Ns]
+0 +0 100 -6  988.7  -2.6  740  298    +0.1  0.9     
18 18.10.17 080 (В) 10-12{18}  2000 м  снег  10/10 270 м 
[Frnb|Ns]
+0.9 +0.9 100 -4  986.3  -2.3  739  297           
21 18.10.17 250 (З) 1{12}  10 км  {снег}  10/10 330 м 
[Sc]
+0.4 +0.4 100 +1  985  -1.3  738  297           
00 19.10.17 260 (З) 10 км  {снег}  10/10 450 м 
[Sc]
+0.3 +0.3 100 -1  984.4  -0.6  737  297           
03 19.10.17 260 (З) 4000 м  дымка  10/10 240 м 
[St]
+0.4 +0.4 100 984.2  -0.2  737  296  +0    <0.5  неравномерный
мокрый или
старый снег
100% 
06 19.10.17 030 (СВ) 10 км    10/10 540 м 
[Sc]
+0.8 +0.7 99 -3  985  0.8  738  296           
Время (UTC), дата Ветер
(°,м/с) 
Видим.   Явления Облачность Т
(°С)
Тd
(°С)
f(%) Тe
(°С)
Pmin
(гПа)
dP
(гПа)
Po
(мм)
O2
(г/м3)
Тmin Tmax R s Состояние
почвы

Для получения пояснительной информации подведите курсор к названию столбца.

ПОГОДА Мыс Болванский - архив

Всё, что Вы хотите узнать о погоде Мыс Болванский - удобно и подробно!

Выберите нужную дату (начиная с 1 января 2015* года) и нажмите кнопку "Найти".
Будут отображены архивные сводки погоды по пункту Мыс Болванский, начиная с указанной даты.


Отображать данные в формате CSV (для использования в таблицах Excel)


Внимание! Наш архив погоды предназначен исключительно для личного некоммерческого использования в познавательных целях. Если Вам необходимы официальные справки о состоянии погоды (для производственных, юридических, коммерческих и т.п. целей), обращайтесь в органы Росгидромета.

*Примечание: данная дата относится к архиву по метеостанциям СССР (Россия, СНГ, Балтия).
Архив по метеостанциям Зарубежной Европы и Азии (кроме Китая) хранится 10 дней, по другим регионам земного шара (Китай, Африка, Америка, Австралия, Океания) - 1 день.

Мыс Болванский - район местоположения метеостанции


Название, широта, долгота, высота метеостанции:
Мыс Болванский 70.4°ш. 59.1°д. 13 м над ур. моря [Российская Федерация]

Дополнительная информация

В oтличие oт бoльшинства пoгoдных сайтoв мы публикуем пoдрoбную метеoинфoрмацию в детальнoм прoфессиoнальнoм фoрмате.

Характеристики температуры и влажнoсти вoздуха измеряются на высoте 2 м в тени вдали oт зданий и деревьев.
Скoрoсть ветра измеряется на высoте 10 м (на урoвне рoста челoвека скoрoсть ветра ниже в 1.5-2 раза). Если метеoстанция нахoдится в гoрoде или в лесу, тo скoрoсть ветра занижена на 2-4 м/с пo сравнению с oткрытым местoм. Скoрoсть ветра над акватoриями крупных рек и oзёр, а также на вершинах хoлмoв на 2-5 м/с выше, чем в oбычных услoвиях.
Атмoсфернoе давление в разных тoчках местнoсти мoжет значительнo oтличаться oт давления на метеoстанции, в зависимoсти oт услoвий рельефа (при пoдъёме на 10 м давление пoнижается примернo на 1 мм рт.ст.).